Regional Weather Roundup
Issued by NWS

Home | Current Version | Previous Version | Graphics & Text | Print | Product List | Glossary Off
Versions: 1 2 3 4 5 6 7 8 9 10 11 12 13 14 15 16 17 18 19 20 21 22 23 24 25 26 27 28 29 30 31 32 33 34 35 36 37 38 39 40 41 42 43 44 45 46 47 48 49 50

000
ASUS43 KMPX 231710
RWRMN
WEATHER ROUNDUP FOR MINNESOTA
NATIONAL WEATHER SERVICE TWIN CITIES/CHANHASSEN MN
1100 AM CST TUE JAN 23 2018


NOTE: "FAIR" INDICATES FEW OR NO CLOUDS BELOW 12,000 FEET WITH NO
SIGNIFICANT WEATHER AND/OR OBSTRUCTIONS TO VISIBILITY. N/A MEANS
CURRENT SKY AND/OR WEATHER CONDITIONS ARE NOT AVAILABLE.

MNZ060>063-068>070-231800-
   Twin Cities Metro

CITY           SKY/WX    TMP DP  RH WIND       PRES   REMARKS
TWIN CITIES    FAIR      20  13  74 N8        30.05R WCI  10
ST PAUL        FAIR      18  11  74 NW16      30.06R WCI   3
CRYSTAL        FAIR      19   9  65 NW10      30.05R WCI   7
BLAINE         MOSUNNY   19  12  73 NW10      30.04R WCI   8
LAKEVILLE      CLOUDY    19  16  86 NW8       30.04R WCI   9
EDEN PRAIRIE   FAIR      20  11  68 NW10      30.04R WCI   9
SOUTH ST PAUL  FAIR      21  13  71 N12       30.04R WCI   9
LAKE ELMO      FAIR      19  12  73 NW10      30.04R WCI   8
$$
MNZ001>005-007-008-013>017-022>024-027-028-231800-
   Northwest Minnesota

CITY           SKY/WX    TMP DP  RH WIND       PRES   REMARKS
BEMIDJI        FAIR      16  11  81 CALM      30.08R
HALLOCK        CLOUDY    19  16  86 SE9       30.10R WCI   9
ROSEAU         FAIR      16  10  79 SE5       30.10R WCI   9
WARROAD        FAIR      12   7  79 E6        30.11R WCI   3
THIEF RVR FALL FLURRIES  19  14  81 S7        30.10R WCI  10
CROOKSTON      FAIR      19  16  86 SW5       30.12S WCI  13
FOSSTON        CLOUDY    19  14  79 SE5       30.09S WCI  13
DETROIT LAKES  CLOUDY    21  18  86 SW3       30.10R
MOORHEAD       CLOUDY    19  16  86 W3        30.13R
PARK RAPIDS    FAIR      19  13  77 W3        30.07R
MAHNOMEN       CLOUDY    19  14  81 SW3       30.09S
$$
MNZ006-009>011-018-025>026-231800-
   North Central Minnesota

CITY           SKY/WX    TMP DP  RH WIND       PRES   REMARKS
BAUDETTE       FAIR       9   2  73 E5        30.10R WCI   1
FLAG ISLAND    PTSUNNY   10   1  67 S8        30.11R WCI  -1
INTL FALLS     FAIR       6  -2  69 N3        30.11R
WASKISH        FAIR      12   7  79 CALM      30.10R
BIG FORK       FAIR      12   5  73 CALM      30.08R
LONGVILLE      FAIR      16   7  67 NW3       30.08R
GRAND RAPIDS   FAIR      12   3  67 NW7       30.08R WCI   1
CRANE LAKE     FAIR       1  -6  71 NW5       30.12R WCI  -8
ORR            FAIR       5  -4  66 W3        30.05R
COOK           PTSUNNY    7   0  72 W3        30.07R
WALKER         FAIR      16   7  67 CALM      30.08R
$$
MNZ012-019>021-037-231800-
   Northeast Minnesota

CITY           SKY/WX    TMP DP  RH WIND       PRES   REMARKS
DULUTH         FAIR      10   1  67 N13       30.00R WCI  -5
HIBBING        FAIR       9   0  67 N6        30.04R WCI  -1
EVELETH        FAIR       7  -3  64 NE6       30.05R WCI  -3
DULUTH HARBOR  CLOUDY    14   7  73 W6        30.07S WCI   5
TWO HARBORS    FAIR      25  12  58 N7        29.99S WCI  17
SILVER BAY     FAIR      19   9  63 NE3       29.99R
GRAND MARAIS     N/A     25   6  44 N15G25    29.98R WCI  13
G MARAIS ARPRT FAIR      16   0  48 N15       29.93R WCI   1
$$
MNZ029>031-032-039>041-046>048-054>057-064-231800-
   West Central Minnesota

CITY           SKY/WX    TMP DP  RH WIND       PRES   REMARKS
FERGUS FALLS   CLOUDY    19  16  86 CALM      30.12R
WHEATON        CLOUDY    21  16  79 W3        30.15R
MORRIS         CLOUDY    23  18  80 NW5       30.11R WCI  17
ALEXANDRIA     FAIR      22  14  71 W5        30.09R WCI  16
ELBOW LAKE     CLOUDY    21  16  81 NW3       30.11S
WADENA         FAIR      19  12  73 N3        30.08R
GLENWOOD       FAIR      23  16  74 NW3       30.10R
APPLETON       CLOUDY    25  18  74 NW6       30.13R WCI  18
BENSON         FAIR      25  16  68 NW3       30.13R
ORTONVILLE     PTSUNNY   21  18  86 CALM      30.12S
MADISON        CLOUDY    25  19  80 W8        30.14R WCI  16
WILLMAR        FAIR      25  16  68 N8        30.13R WCI  16
$$
MNZ033>034-036-042>043-049>051-058-059-231800-
   Central Minnesota

CITY           SKY/WX    TMP DP  RH WIND       PRES   REMARKS
ST CLOUD       FAIR      20  10  65 N13       30.06R WCI   7
SAUK CENTRE      N/A     21  13  72 N9        30.09R WCI  10
PAYNESVILLE    FAIR      24  16  71 N10       30.09R WCI  13
AITKIN         FAIR      14   3  62 NW5       30.05R WCI   6
PINE RIVER     FAIR      16   7  67 N5        30.11R WCI   9
BRAINERD       FAIR      17   6  62 N8        30.07R WCI   7
STAPLES        FAIR      19  12  73 NW7       30.08R WCI  10
LONG PRAIRIE   FAIR      21  14  73 NW9       30.09R WCI  11
LITTLE FALLS     N/A    N/A N/A N/A N7          N/A
LITCHFIELD     FAIR      27  16  63 NW12      30.08R WCI  16
BUFFALO        FAIR      22  13  68 NW8       30.08R WCI  13
MAPLE LAKE     FAIR      24  15  69 MISG      30.07R
HUTCHINSON     FAIR      25  16  69 NW10      30.08R WCI  15
$$
MNZ037-044-045-052-053-231800-
   East Central Minnesota

CITY           SKY/WX    TMP DP  RH WIND       PRES   REMARKS
PRINCETON      FAIR      21  12  68 NW6       30.05R WCI  14
MORA           FAIR      19   9  63 N6        30.05S WCI  11
CAMBRIDGE      FAIR      19   9  63 N5        30.05S WCI  13
RUSH CITY      FAIR      16   7  67 N7        30.05R WCI   7
MOOSE LAKE     FAIR      14   3  62 NW5       30.04R WCI   6
HINCKLEY       FAIR      16   7  67 NW7       30.05R WCI   6
CLOQUET        FAIR      10   0  61 N8        30.02R WCI  -1
MCGREGOR       FAIR      14   5  67 N5        30.05R WCI   6
$$
MNZ071>073-080-081-089-090-097-098-231800-
   Southwest Minnesota

CITY           SKY/WX    TMP DP  RH WIND       PRES   REMARKS
MONTEVIDEO     FAIR      27  18  69 CALM      30.12S
GRANITE FALLS  CLOUDY    26  19  72 NW6       30.14S WCI  20
CANBY          CLOUDY    24  20  86 W5        30.14R WCI  18
MARSHALL       CLOUDY    22  18  85 N9        30.13R WCI  12
REDWOOD FALLS  FAIR      25  16  68 N9        30.11R WCI  15
OLIVIA         FAIR      28  19  69 N13       30.10R WCI  18
PIPESTONE      CLOUDY    19  18  93 NW9       30.10R WCI   9
WINDOM         FAIR      21   7  53 NW10      30.09R WCI  10
WORTHINGTON    CLOUDY    21  19  92 N13       30.10R WCI   9
JACKSON        FAIR      23  18  80 NW15      30.09R WCI  10
TRACY          CLOUDY    23  19  86 N9        30.11R WCI  13
SLAYTON        CLOUDY    21  18  87 N10       30.10R WCI  10
$$
MNZ065>067-074>077-082>085-091>093-231800-
   South Central Minnesota

CITY           SKY/WX    TMP DP  RH WIND       PRES   REMARKS
MANKATO        FAIR      22  15  75 NW13      30.08R WCI  10
NEW ULM        FAIR      19  14  79 NW16      30.09R WCI   5
ST JAMES       FAIR      21  16  79 NW12      30.10R WCI   9
FAIRMONT       FAIR      23  19  85 NW18      30.09R WCI   9
FARIBAULT      CLOUDY    19  14  79 NW9       30.05R WCI   9
OWATONNA       CLOUDY    19  16  86 N8        30.03R WCI   9
WASECA         CLOUDY    19  14  79 NW13      30.06R WCI   7
ALBERT LEA     CLOUDY    19  14  79 NW9       30.04R WCI   9
$$
MNZ078>079-086>088-094>096-231800-
   Southeast Minnesota

CITY           SKY/WX    TMP DP  RH WIND       PRES   REMARKS
ROCHESTER      CLOUDY    20  17  88 NW13      29.98R WCI   7
RED WING       FAIR      21  12  68 NW7       30.01S WCI  13
STANTON        CLOUDY    22  16  79 NW10      30.02R WCI  11
DODGE CENTER   CLOUDY    19  16  86 NW9       30.00R WCI   9
WINONA         CLOUDY    23  18  80 NW14      29.99R WCI  11
AUSTIN         CLOUDY    19  16  86 VRB9G17   30.02R WCI   9
PRESTON        CLOUDY    19  16  88 NW10      29.99R WCI   8
$$
ABBREVIATIONS USED IN REMARKS
   TC - TEMPERATURES IN CELSIUS
  WCI - WIND CHILL INDEX
   HX - HEAT INDEX
  VSB - VISIBILITY
$$




USA.gov is the U.S. government's official web portal to all federal, state and local government web resources and services.